CAPE
0 0 0 0 0 0 0 0 0 0 0 0 0 0 0 0 0 0 0 0 0 0 0 0 2 0 150 465 575 695 764 720 733 800 840 877 897 917 940 961 990 1025 1058 1046 1080 1136 1182 1190 1266 1284 1241 1226 1134 1056 996 973 944 969 994 1020 1095 1256 1361 1398 1363 1345 1373 1401 1412 1388 1321 1278 1296 1388 1361 1296 1164 1238 1349 1639 1677 1708 1825 2014 2132 2041
0 0 0 0 0 0 0 0 0 0 0 0 0 0 0 0 0 0 0 0 0 0 0 0 0 0 108 432 528 620 658 656 670 749 779 831 862 890 905 931 957 984 967 946 995 1048 1131 1135 1146 1207 1240 1210 1170 1160 1089 1016 948 901 908 935 1007 1146 1303 1343 1324 1272 1277 1386 1458 1389 1310 1309 1279 1375 1420 1344 1233 1362 1422 1418 1629 1776 1866 2082 2189 2257
0 0 0 0 0 0 0 0 0 0 0 0 0 0 0 0 0 0 0 0 0 0 0 0 0 0 68 359 481 554 591 612 609 698 730 758 787 813 825 859 885 885 880 863 929 996 1054 1100 1152 1124 1096 1092 1076 1065 1050 1021 957 896 859 859 931 1045 1226 1286 1286 1205 1198 1306 1438 1461 1408 1288 1214 1289 1464 1466 1432 1503 1576 1545 1516 1828 1980 2163 2267 2289
0 0 0 0 0 0 0 0 0 0 0 0 0 0 0 0 0 0 0 0 0 0 0 0 0 0 22 255 414 514 543 572 572 634 682 704 704 704 732 774 789 788 809 770 777 844 908 980 1001 989 952 958 956 928 922 913 931 923 885 835 860 959 1107 1214 1268 1257 1139 1215 1388 1495 1338 1215 1183 1236 1312 1402 1468 1521 1556 1524 1442 1787 2041 2165 2313 2363
0 0 0 0 0 0 0 0 0 0 0 0 0 0 0 0 0 0 0 0 0 0 0 0 0 0 0 58 228 434 507 506 542 598 634 664 676 651 653 683 702 729 718 704 722 729 741 753 770 820 873 873 879 861 844 842 857 868 839 796 804 882 999 1084 1164 1184 1120 1144 1220 1319 1258 1166 1189 1232 1281 1302 1364 1440 1526 1515 1438 1693 1996 2088 2238 2346
0 0 0 0 0 0 0 0 0 0 0 0 0 0 0 0 0 0 0 0 0 0 0 0 0 0 0 0 4 295 433 454 497 546 569 610 627 608 596 618 640 660 649 641 670 681 655 625 636 671 697 728 754 767 790 798 791 791 773 734 736 819 938 982 1031 1090 1090 1125 1127 1106 1161 1182 1182 1188 1263 1360 1371 1414 1508 1562 1448 1633 1870 1989 2063 2188
0 0 0 0 0 0 0 0 0 0 0 0 0 0 0 0 0 0 0 0 0 0 0 0 0 0 0 0 0 12 87 374 387 438 489 518 601 577 551 572 616 629 629 607 607 602 583 579 577 596 600 647 677 704 729 738 717 677 682 724 740 790 891 935 956 995 1155 1147 1148 1102 1116 1138 1158 1174 1210 1302 1383 1392 1450 1494 1380 1522 1758 1864 1907 1951
0 0 0 0 0 0 0 0 0 0 0 0 0 0 0 0 0 0 0 0 0 0 0 0 0 0 0 0 0 0 2 38 265 282 371 416 484 560 527 506 565 599 584 566 574 566 542 520 499 506 528 651 701 704 692 691 679 656 665 692 738 741 922 948 971 976 1011 1130 1175 1146 1117 1116 1126 1132 1164 1234 1380 1372 1393 1401 1416 1468 1707 1798 1797 1774
0 0 0 0 0 0 0 0 0 0 0 0 0 0 0 0 0 0 0 0 0 0 0 0 0 0 0 0 0 0 0 0 0 34 226 312 353 451 483 436 486 548 545 524 522 556 553 515 447 319 437 620 735 739 701 712 758 736 725 734 751 768 800 974 990 982 972 1061 1154 1162 1126 1114 1101 1082 1082 1159 1248 1275 1248 1274 1230 1346 1508 1770 1825 1778
0 0 0 0 0 0 0 0 0 0 0 0 0 0 0 0 0 0 0 0 0 0 0 0 0 0 0 0 0 0 0 0 0 0 9 188 240 308 402 390 394 487 520 486 469 495 512 471 326 305 372 533 709 784 786 743 780 812 786 784 800 809 871 866 1016 1060 961 939 1146 1156 1159 1123 1101 1062 1048 1067 1140 1149 1124 1095 1106 1263 1393 1602 1804 1860
0 0 0 0 0 0 0 0 0 0 0 0 0 0 0 0 0 0 0 0 0 0 0 0 0 0 0 0 0 0 0 0 0 0 0 4 10 52 155 339 335 409 490 481 454 364 480 424 383 342 333 413 592 783 870 863 812 819 839 838 851 848 899 940 1014 1125 1042 951 1001 1076 1148 1145 1106 1088 1073 1055 1062 1124 1141 1172 1165 1217 1339 1513 1689 1807
0 0 0 0 0 0 0 0 0 0 0 0 0 0 0 0 0 0 0 0 0 0 0 0 0 0 0 0 0 0 0 0 0 0 0 0 0 0 6 96 286 324 430 469 459 276 282 521 533 499 408 370 440 695 846 968 938 885 877 874 905 890 921 1171 1199 1211 1169 1081 1058 1069 1066 1109 1099 1082 1062 1044 1036 1137 1190 1207 1219 1244 1329 1466 1614 1729
0 0 0 0 0 0 0 0 0 0 0 0 0 0 0 0 0 0 0 0 0 0 0 0 0 0 0 0 0 0 0 0 0 0 0 0 0 0 0 4 74 154 358 443 452 286 264 304 536 594 598 548 523 606 776 922 1024 1030 985 943 942 1000 996 1208 1349 1336 1298 1226 1197 1187 1156 1110 1095 1004 1040 1026 1007 1070 1183 1221 1247 1290 1372 1474 1588 1690
0 0 0 0 0 0 0 0 0 0 0 0 0 0 0 0 0 0 0 0 0 0 0 0 0 0 0 0 0 0 0 0 0 0 0 0 0 0 0 0 5 74 212 392 363 282 281 300 456 556 625 638 627 631 723 867 982 1088 1096 1059 1021 1035 1034 1078 1388 1449 1425 1359 1318 1319 1297 1268 1272 1237 1170 1185 1118 1066 1169 1253 1304 1344 1436 1528 1617 1689
0 0 0 0 0 0 0 0 0 0 0 0 0 0 0 0 0 0 0 0 0 0 0 0 0 0 0 0 0 0 0 0 0 0 0 0 0 0 0 0 0 19 130 247 281 289 288 294 362 494 558 601 631 654 701 807 936 1042 1150 1135 1123 1093 1087 1102 1242 1506 1537 1483 1436 1419 1420 1418 1415 1433 1423 1427 1395 1287 1179 1295 1376 1416 1485 1559 1583 1652
0 0 0 0 0 0 0 0 0 0 0 0 0 0 0 0 0 0 0 0 0 0 0 0 0 0 0 0 0 0 0 0 0 0 0 0 0 0 0 0 0 2 59 180 269 287 282 293 387 458 508 558 598 630 677 739 863 963 1105 1190 1183 1168 1169 1187 1177 1323 1561 1607 1560 1521 1524 1524 1529 1539 1532 1533 1518 1438 1267 1300 1392 1463 1453 1489 1573 1660
0 0 0 0 0 0 0 0 0 0 0 0 0 0 0 0 0 0 0 0 0 0 0 0 0 0 0 0 0 0 0 0 0 0 0 0 0 0 0 0 0 0 16 92 235 288 294 290 405 445 499 540 568 598 639 705 810 922 1013 1147 1227 1225 1210 1235 1320 1306 1362 1553 1633 1641 1615 1616 1608 1615 1600 1583 1566 1516 1433 1354 1393 1421 1396 1486 1634 1752
0 0 0 0 0 0 0 0 0 0 0 0 0 0 0 0 0 0 0 0 0 0 0 0 0 0 0 0 0 0 0 0 0 0 0 0 0 0 0 0 0 0 0 30 126 248 278 339 410 435 484 541 570 572 596 664 766 879 956 1046 1184 1254 1256 1269 1370 1421 1389 1424 1533 1620 1653 1648 1644 1644 1635 1607 1563 1540 1522 1515 1504 1447 1407 1503 1669 1771
0 0 0 0 0 0 0 0 0 0 0 0 0 0 0 0 0 0 0 0 0 0 0 0 0 0 0 0 0 0 0 0 0 0 0 0 0 0 0 0 0 0 0 0 44 141 330 392 414 436 466 506 567 600 605 633 708 817 920 986 1090 1223 1288 1318 1374 1489 1513 1471 1472 1536 1629 1671 1658 1644 1636 1620 1578 1540 1552 1582 1584 1518 1386 1521 1652 1773
0 0 0 0 0 0 0 0 0 0 0 0 0 0 0 0 0 0 0 0 0 0 0 0 0 0 0 0 0 0 0 0 0 0 0 0 0 0 0 0 0 0 0 0 2 48 184 366 413 439 457 483 537 594 646 654 687 783 889 975 1041 1142 1258 1331 1394 1530 1589 1575 1539 1519 1551 1629 1673 1683 1672 1658 1656 1621 1584 1595 1588 1540 1421 1509 1606 1734
0 0 0 0 0 0 0 0 0 0 0 0 0 0 0 0 0 0 0 0 0 0 0 0 0 0 0 0 0 0 0 0 0 0 0 0 0 0 0 0 0 0 0 0 0 2 60 195 362 437 456 486 510 571 642 681 722 802 902 999 1080 1137 1225 1319 1432 1529 1652 1674 1647 1599 1565 1597 1664 1720 1726 1730 1734 1710 1691 1670 1631 1586 1523 1523 1576 1662
0 0 0 0 0 0 0 0 0 0 0 0 0 0 0 0 0 0 0 0 0 0 0 0 0 0 0 0 0 0 0 0 0 0 0 0 0 0 0 0 0 0 0 0 0 0 5 72 207 351 477 505 512 548 650 724 768 818 911 1002 1120 1226 1275 1326 1423 1535 1654 1731 1758 1733 1689 1660 1682 1747 1783 1795 1807 1803 1774 1748 1713 1671 1608 1562 1584 1619
0 0 0 0 0 0 0 0 0 0 0 0 0 0 0 0 0 0 0 0 0 0 0 0 0 0 0 0 0 0 0 0 0 0 0 0 0 0 0 0 0 0 0 0 0 0 0 9 91 277 410 536 552 592 706 803 843 875 923 997 1129 1265 1363 1407 1468 1549 1639 1732 1796 1822 1793 1769 1766 1799 1837 1852 1862 1871 1857 1820 1782 1741 1712 1691 1667 1653
0 0 0 0 0 0 0 0 0 0 0 0 0 0 0 0 0 0 0 0 0 0 0 0 0 0 0 0 0 0 0 0 0 0 0 0 0 0 0 0 0 0 0 0 2 4 3 3 19 148 393 561 627 664 774 881 935 967 986 1037 1144 1281 1388 1463 1534 1603 1664 1732 1794 1841 1852 1841 1832 1836 1878 1906 1919 1943 1931 1885 1835 1799 1764 1772 1749 1721
0 0 0 0 0 0 0 0 0 0 0 0 0 0 0 0 0 0 0 0 0 0 0 0 0 0 0 0 0 0 0 0 0 0 0 0 0 0 0 0 0 0 0 0 0 12 25 18 11 57 319 626 702 752 852 976 1035 1056 1091 1128 1204 1324 1415 1493 1571 1659 1726 1774 1806 1858 1894 1915 1900 1904 1919 1943 1964 1979 1987 1970 1919 1872 1844 1822 1816 1780
0 0 0 0 0 0 0 0 0 0 0 0 0 0 0 0 0 0 0 0 0 0 0 0 0 0 0 0 0 0 0 0 0 0 0 0 0 0 0 0 0 0 0 0 3 4 13 43 49 53 192 548 740 814 906 1041 1123 1149 1190 1256 1303 1393 1476 1564 1645 1738 1814 1853 1883 1911 1944 1976 1990 1991 1996 2004 2014 2021 2019 2030 1995 1955 1934 1904 1852 1838
0 0 0 0 0 0 0 0 0 0 0 0 0 0 0 0 0 0 0 0 0 0 0 0 0 0 0 0 0 0 0 0 0 0 0 0 0 0 0 0 0 0 0 0 4 9 6 20 76 216 234 441 695 838 935 1081 1184 1226 1263 1330 1410 1501 1591 1668 1765 1876 1916 1962 2008 2010 2030 2046 2062 2067 2062 2080 2084 2080 2085 2086 2055 2022 2003 1964 1932 1874
0 0 0 0 0 0 0 0 0 0 0 0 0 0 0 0 0 0 0 0 0 0 0 0 0 0 0 0 0 0 0 0 0 0 0 0 0 0 0 0 0 0 0 0 50 134 147 189 97 214 351 383 612 801 949 1094 1227 1295 1330 1380 1459 1602 1737 1814 1925 2005 2047 2093 2116 2128 2131 2131 2144 2138 2142 2147 2148 2153 2166 2151 2129 2102 2052 2017 1985 1934
0 0 0 0 0 0 0 0 0 0 0 0 0 0 0 0 0 0 0 0 0 0 0 0 0 0 0 0 0 0 0 0 0 0 0 0 0 0 0 0 0 0 0 0 0 4 25 204 250 206 408 443 588 760 920 1100 1269 1340 1391 1416 1483 1661 1830 1961 2060 2148 2207 2224 2256 2249 2226 2225 2220 2235 2232 2220 2198 2209 2215 2213 2194 2148 2105 2082 2043 1985
0 0 0 0 0 0 0 0 0 0 0 0 0 0 0 0 0 0 0 0 0 0 0 0 0 0 0 0 0 0 0 0 0 0 0 0 0 2 0 0 0 0 0 0 0 0 0 21 255 277 319 517 629 770 904 1099 1277 1392 1434 1463 1521 1646 1858 2051 2166 2256 2315 2357 2378 2360 2342 2319 2308 2306 2319 2304 2286 2268 2267 2274 2256 2206 2165 2142 2122 2093
0 0 0 0 0 0 0 0 0 0 0 0 0 0 0 0 0 0 0 0 0 0 0 0 0 0 0 0 0 0 0 0 0 0 0 0 0 125 14 0 0 0 0 0 0 0 0 24 99 303 484 585 706 805 938 1096 1268 1405 1457 1496 1544 1654 1869 2088 2254 2329 2409 2465 2467 2461 2445 2427 2398 2367 2363 2368 2361 2361 2350 2317 2287 2256 2238 2214 2206 2181
0 0 0 0 0 0 0 0 0 0 0 0 0 0 0 0 0 0 0 0 0 0 0 0 0 0 0 0 0 0 0 0 0 0 0 0 0 36 98 0 0 0 0 0 0 0 0 13 69 170 519 668 785 876 972 1119 1278 1390 1473 1518 1558 1651 1850 2097 2261 2379 2474 2533 2543 2547 2553 2527 2486 2440 2414 2410 2426 2428 2409 2377 2332 2301 2284 2264 2229 2223
0 0 0 0 0 0 0 0 0 0 0 0 0 0 0 0 0 0 0 0 0 0 0 0 0 0 0 0 0 0 0 0 0 0 0 0 0 55 151 30 0 0 0 0 0 0 0 23 80 212 532 682 807 942 1056 1176 1289 1392 1488 1540 1589 1639 1822 2096 2260 2385 2485 2552 2603 2616 2626 2614 2578 2529 2493 2472 2468 2459 2449 2420 2384 2354 2322 2293 2267 2249
0 0 0 0 0 0 0 0 0 0 0 0 0 0 0 0 0 0 0 0 0 0 0 0 0 0 0 0 0 0 0 0 0 0 0 0 0 0 10 617 0 0 0 0 0 0 0 36 134 340 565 715 827 976 1135 1221 1336 1447 1516 1563 1607 1645 1784 2036 2246 2375 2468 2544 2607 2661 2678 2666 2646 2631 2597 2549 2508 2498 2490 2438 2425 2391 2359 2326 2285 2267
0 0 0 0 0 0 0 0 0 0 0 0 0 0 0 0 0 0 0 0 0 0 0 0 0 0 0 0 0 0 0 8 158 870 1080 1074 354 0 144 699 520 23 26 58 27 0 2 84 334 480 625 750 866 991 1117 1233 1340 1497 1569 1606 1638 1666 1774 1954 2174 2319 2449 2516 2591 2676 2722 2718 2705 2696 2672 2620 2579 2554 2503 2453 2456 2434 2401 2355 2320 2284
0 0 0 0 0 0 0 0 0 0 0 0 0 0 0 0 0 0 0 0 0 65 0 0 0 0 0 0 0 3 128 249 176 919 1289 1250 1107 572 0 0 570 605 427 140 393 127 78 107 334 548 680 774 870 971 1059 1189 1298 1415 1570 1686 1718 1727 1770 1900 2048 2225 2363 2460 2554 2649 2718 2750 2748 2736 2705 2676 2647 2594 2535 2480 2450 2455 2442 2398 2347 2294
0 0 0 0 0 0 0 0 0 0 0 0 0 0 0 0 0 0 0 0 343 193 0 0 0 0 0 0 0 10 5 0 0 128 982 1345 1364 1286 930 262 263 609 593 376 593 820 625 443 506 611 708 806 893 996 1092 1188 1258 1322 1467 1628 1748 1795 1812 1858 1938 2094 2247 2379 2499 2601 2695 2749 2754 2738 2728 2708 2684 2637 2568 2512 2486 2455 2423 2401 2356 2328
0 1 1 0 0 0 0 0 0 0 0 0 0 0 0 0 0 0 0 0 0 625 575 0 0 0 0 0 0 0 0 0 2 86 418 1326 1215 1383 1321 1220 1356 1661 1738 1540 785 676 846 871 720 720 876 954 976 1046 1132 1195 1271 1336 1400 1493 1644 1786 1871 1866 1919 2017 2155 2321 2457 2572 2664 2736 2757 2746 2733 2723 2710 2686 2626 2587 2549 2514 2456 2421 2364 2333
0 0 0 0 0 0 0 0 0 0 0 0 0 0 0 0 0 0 0 0 266 831 782 236 41 16 0 0 0 0 0 0 1 12 668 1312 1430 1164 1109 1034 1074 1594 2042 2127 2018 1916 1722 952 1005 937 931 1095 1151 1184 1236 1313 1403 1430 1443 1490 1579 1692 1780 1848 1938 2006 2091 2250 2386 2503 2622 2705 2765 2764 2744 2749 2735 2702 2668 2628 2616 2578 2515 2456 2395 2388
1 0 1 2 0 0 0 0 0 0 0 0 0 0 0 0 0 0 0 0 73 678 749 832 697 449 94 1 0 0 0 0 0 336 1410 1271 1174 1101 1036 938 845 1255 1813 2266 2417 2436 2155 1339 957 1120 1088 1113 1268 1361 1402 1426 1504 1589 1616 1633 1679 1738 1775 1839 1910 1976 2059 2160 2268 2384 2530 2672 2765 2795 2776 2759 2735 2705 2676 2635 2627 2628 2572 2521 2477 2437
54 195 183 120 2 6 8 3 0 0 0 0 0 0 0 0 176 0 0 0 887 753 733 759 755 634 512 403 268 365 1487 845 947 1524 1265 994 994 1008 918 898 1011 972 1134 1929 2796 3028 2410 1703 1013 942 1165 1179 1203 1357 1452 1520 1562 1678 1784 1816 1824 1841 1903 1957 1977 2008 2060 2110 2157 2258 2403 2592 2718 2797 2806 2766 2721 2690 2664 2643 2654 2630 2589 2548 2528 2479
128 177 338 357 74 4 4 14 0 0 0 0 0 8 52 14 0 16 1218 704 952 1048 1244 1196 1180 1103 942 862 926 1102 1409 1545 1219 1113 926 794 846 874 833 925 992 971 995 1116 2207 3008 3150 3003 2055 1940 2030 2160 2528 1433 1256 1534 1691 1723 1818 1936 1940 1956 1998 2024 2047 2089 2109 2140 2164 2199 2276 2417 2582 2724 2787 2768 2697 2656 2672 2671 2628 2649 2600 2566 2546 2518
73 19 48 58 167 8 6 13 4 12 72 0 49 98 355 631 841 552 924 1195 990 1177 1134 1026 1052 1002 959 983 1179 1278 1128 1037 962 933 846 859 709 637 759 904 1079 1179 1138 1055 1455 2125 3154 3293 2908 2573 2622 2810 2844 2891 2140 1524 1696 1817 1917 1952 2033 2107 2127 2110 2140 2169 2158 2154 2146 2154 2188 2271 2437 2615 2713 2739 2715 2670 2665 2666 2666 2681 2656 2615 2572 2562
45 34 64 228 302 18 13 19 5 11 79 16 136 167 712 458 816 1236 950 1134 1030 943 971 922 879 861 939 1032 1022 848 841 835 884 915 960 995 936 834 816 1024 1245 1254 1161 1291 1417 1683 2387 3224 3419 2990 2953 3003 3082 3113 3177 2858 2318 1808 1860 1992 2100 2190 2210 2240 2269 2294 2288 2272 2271 2253 2254 2266 2306 2472 2577 2660 2680 2685 2678 2657 2674 2690 2694 2677 2645 2608
46 111 152 5 312 59 12 21 30 79 97 34 314 605 869 838 966 903 1008 681 709 615 677 731 782 829 761 757 700 642 640 693 711 820 906 983 950 1036 1144 1277 1426 1333 1348 1272 1321 1577 1826 2114 2753 3507 3522 3220 3200 3304 3348 3207 3148 2888 2584 2049 2168 2573 2225 2269 2344 2349 2362 2377 2367 2358 2348 2342 2342 2350 2492 2573 2640 2672 2681 2698 2695 2712 2736 2727 2677 2653
204 446 478 377 340 420 455 218 74 177 130 218 256 724 1019 924 714 742 683 631 456 629 558 674 729 692 639 487 509 566 605 678 684 699 709 776 955 1061 1170 1248 1191 1329 1340 1318 1355 1502 1664 1830 1874 2342 2900 3418 3465 3403 3435 3421 3327 3263 3204 3058 2918 2796 2395 2098 2164 2296 2387 2425 2449 2484 2470 2430 2401 2382 2348 2447 2563 2670 2716 2735 2757 2747 2744 2736 2717 2691
42 293 377 182 187 395 130 369 142 139 93 188 150 546 543 778 633 621 552 396 439 544 605 555 678 659 651 544 531 593 600 608 610 624 681 833 991 1023 1144 1296 1364 1323 1230 1181 1442 1500 1633 1568 1940 2085 2047 2497 2733 3324 3502 3543 3543 3497 3419 3401 3310 3253 3218 3119 3000 2762 2401 2301 2381 2428 2428 2376 2381 2366 2332 2318 2481 2616 2720 2799 2823 2784 2752 2752 2747 2693
4 248 209 212 211 1 6 408 23 137 65 156 281 356 373 337 294 256 222 355 387 311 568 409 338 654 606 666 626 655 707 817 797 731 761 895 997 1052 1097 1215 1433 1514 1573 1521 1570 1532 1549 1710 1730 1918 2009 2123 2183 2159 2507 2842 3330 3538 3611 3635 3584 3563 3470 3431 3313 3215 3125 2981 2707 2313 2293 2318 2289 2292 2304 2407 2545 2593 2674 2771 2845 2835 2779 2774 2728 2612
12 158 25 286 228 382 388 137 21 211 233 90 86 200 284 291 112 97 206 256 305 232 152 488 38 91 423 468 566 683 734 759 802 828 954 1014 1047 1117 1191 1286 1439 1601 1604 1514 1485 1502 1453 1608 1666 1847 1842 2152 2218 2270 2248 2185 2455 2547 2534 3190 3775 3775 3752 3678 3623 3564 3468 3374 3285 3175 2966 2652 2331 2228 2203 2392 2522 2602 2710 2773 2827 2858 2777 2694 2625 2516
53 12 166 291 180 210 77 3 44 210 227 49 46 124 204 155 158 98 163 191 186 104 22 38 0 37 138 276 376 514 658 774 821 934 1078 1172 1194 1189 1259 1320 1405 1580 1723 1824 1792 1794 1736 1741 1726 1641 1927 2175 2195 2281 2325 2328 2379 2419 2439 2540 2612 3072 3562 3792 3752 3697 3555 3366 3193 2975 2620 2248 2054 2082 2146 2256 2329 2514 2630 2690 2774 2756 2682 2564 2515 2492
96 58 169 174 0 32 338 41 76 209 78 4 66 46 51 35 64 116 100 125 138 133 29 16 2 20 93 246 299 416 518 664 802 933 1054 1172 1278 1342 1392 1386 1449 1537 1686 1795 1909 1930 1918 1826 1765 1661 1846 2052 2087 2118 2124 2182 2222 2236 2310 2429 2540 2648 2715 2601 2593 2654 2772 2610 2353 2218 2054 1853 1822 1947 2075 2212 2384 2391 2421 2514 2627 2620 2569 2488 2525 2413
Wind_Speed
nan nan nan nan nan nan nan nan nan nan nan nan nan nan nan nan nan nan nan nan nan nan nan nan nan nan 12 19 22 25 23 20 23 29 25 20 19 17 15 15 16 16 18 13 11 8 8 7 4 2 2 2 2 2 1 2 3 4 4 4 6 4 4 4 5 5 5 5 5 6 7 7 6 5 5 5 4 5 6 6 6 7 7 6 7 8
nan nan nan nan nan nan nan nan nan nan nan nan nan nan nan nan nan nan nan nan nan nan nan nan nan nan 12 17 19 20 21 24 28 31 28 22 19 18 19 18 16 17 9 7 8 7 5 5 5 3 1 1 2 2 1 2 4 4 4 5 5 3 4 6 6 5 6 6 5 5 6 5 4 3 4 5 5 4 5 6 6 5 5 5 7 8
nan nan nan nan nan nan nan nan nan nan nan nan nan nan nan nan nan nan nan nan nan nan nan nan nan nan nan 15 18 21 23 24 28 34 32 24 19 17 17 18 16 10 8 9 12 10 7 8 7 5 4 4 6 4 4 4 2 3 4 4 4 4 5 5 5 5 6 5 5 5 5 4 4 3 2 4 4 4 4 5 5 4 4 5 6 8
nan nan nan nan nan nan nan nan nan nan nan nan nan nan nan nan nan nan nan nan nan nan nan nan nan nan nan 13 14 14 18 19 24 28 24 18 19 20 21 20 17 15 13 11 11 11 8 7 6 6 5 5 3 2 2 3 5 4 4 3 4 5 5 5 6 6 5 5 5 4 4 5 3 3 4 4 5 4 4 4 3 3 4 6 7 8
nan nan nan nan nan nan nan nan nan nan nan nan nan nan nan nan nan nan nan nan nan nan nan nan nan nan nan nan 9 2 8 11 14 16 13 8 9 17 21 20 18 19 18 15 12 10 8 7 7 7 7 5 5 6 6 6 5 2 6 6 7 6 6 5 6 7 4 2 3 2 5 6 5 8 5 4 4 2 1 2 2 3 4 6 7 9
nan nan nan nan nan nan nan nan nan nan nan nan nan nan nan nan nan nan nan nan nan nan nan nan nan nan nan nan nan 6 9 6 9 13 15 12 7 8 14 19 18 15 16 20 18 14 12 11 9 8 8 6 6 7 7 8 8 7 6 6 6 4 4 5 7 7 6 5 5 4 2 2 1 3 1 3 4 2 3 4 2 3 6 7 8 10
nan nan nan nan nan nan nan nan nan nan nan nan nan nan nan nan nan nan nan nan nan nan nan nan nan nan nan nan nan nan nan 10 7 10 14 10 9 12 14 15 18 17 13 10 13 14 12 12 11 11 12 11 9 8 7 7 7 8 7 8 8 6 4 5 6 9 7 7 7 9 8 6 4 4 2 1 2 4 3 4 5 6 7 8 10 11
nan nan nan nan nan nan nan nan nan nan nan nan nan nan nan nan nan nan nan nan nan nan nan nan nan nan nan nan nan nan nan nan 4 9 13 12 12 14 13 15 17 18 16 14 13 12 12 11 11 12 12 10 10 9 8 8 8 9 9 9 9 7 7 6 7 9 10 9 9 9 9 6 5 5 4 4 3 3 5 6 6 7 8 9 11 13
nan nan nan nan nan nan nan nan nan nan nan nan nan nan nan nan nan nan nan nan nan nan nan nan nan nan nan nan nan nan nan nan nan nan 15 15 15 15 15 16 18 19 19 16 13 14 13 11 10 10 9 10 12 10 10 10 10 10 11 11 11 10 9 8 10 10 11 11 10 10 8 6 5 5 4 4 4 4 5 6 7 8 9 10 12 14
nan nan nan nan nan nan nan nan nan nan nan nan nan nan nan nan nan nan nan nan nan nan nan nan nan nan nan nan nan nan nan nan nan nan nan 16 17 16 14 15 17 18 17 15 14 13 14 14 13 12 11 10 8 8 9 9 8 9 9 11 12 11 9 10 12 12 13 13 10 9 9 10 6 5 5 7 5 5 6 5 7 9 11 12 14 15
nan nan nan nan nan nan nan nan nan nan nan nan nan nan nan nan nan nan nan nan nan nan nan nan nan nan nan nan nan nan nan nan nan nan nan nan nan nan 13 14 15 16 16 14 13 10 11 12 13 12 11 11 9 6 7 6 6 7 7 9 10 11 10 12 13 13 14 12 11 10 11 11 9 7 7 7 6 6 7 6 7 10 11 14 15 16
nan nan nan nan nan nan nan nan nan nan nan nan nan nan nan nan nan nan nan nan nan nan nan nan nan nan nan nan nan nan nan nan nan nan nan nan nan nan nan nan 12 14 14 13 14 13 10 9 8 8 9 10 10 8 8 7 6 6 6 7 10 10 12 11 12 13 12 11 11 10 11 10 10 10 8 9 8 8 8 8 8 10 12 14 15 17
nan nan nan nan nan nan nan nan nan nan nan nan nan nan nan nan nan nan nan nan nan nan nan nan nan nan nan nan nan nan nan nan nan nan nan nan nan nan nan nan nan 10 10 11 13 15 15 12 12 12 11 10 11 10 11 11 10 9 8 9 10 10 11 11 12 13 12 11 10 10 10 10 9 9 10 10 9 10 10 10 10 12 13 14 16 17
nan nan nan nan nan nan nan nan nan nan nan nan nan nan nan nan nan nan nan nan nan nan nan nan nan nan nan nan nan nan nan nan nan nan nan nan nan nan nan nan nan nan 8 10 11 15 18 16 14 14 14 16 15 15 15 15 15 14 13 13 13 13 13 12 13 13 12 11 10 10 10 10 9 9 10 9 10 11 12 13 13 13 13 15 16 18
nan nan nan nan nan nan nan nan nan nan nan nan nan nan nan nan nan nan nan nan nan nan nan nan nan nan nan nan nan nan nan nan nan nan nan nan nan nan nan nan nan nan 5 7 9 12 16 18 18 16 16 17 18 19 19 18 18 18 17 17 17 16 16 15 15 14 14 12 10 9 10 11 11 11 11 10 10 12 13 14 16 15 14 14 16 18
nan nan nan nan nan nan nan nan nan nan nan nan nan nan nan nan nan nan nan nan nan nan nan nan nan nan nan nan nan nan nan nan nan nan nan nan nan nan nan nan nan nan nan 7 8 8 11 15 18 17 16 17 19 21 21 21 20 20 19 19 20 20 20 19 18 16 15 13 11 10 11 12 12 13 13 12 12 12 14 16 17 17 17 16 17 18
nan nan nan nan nan nan nan nan nan nan nan nan nan nan nan nan nan nan nan nan nan nan nan nan nan nan nan nan nan nan nan nan nan nan nan nan nan nan nan nan nan nan nan nan 9 9 10 13 16 16 16 17 19 20 21 20 20 21 21 20 21 21 21 22 20 18 17 16 14 11 11 12 13 13 14 13 13 14 16 17 17 19 18 17 18 18
nan nan nan nan nan nan nan nan nan nan nan nan nan nan nan nan nan nan nan nan nan nan nan nan nan nan nan nan nan nan nan nan nan nan nan nan nan nan nan nan nan nan nan nan 12 11 11 12 14 14 14 16 19 20 20 19 18 19 20 22 23 23 24 22 21 19 18 18 15 12 12 13 14 14 14 14 15 17 18 17 18 20 20 19 18 18
nan nan nan nan nan nan nan nan nan nan nan nan nan nan nan nan nan nan nan nan nan nan nan nan nan nan nan nan nan nan nan nan nan nan nan nan nan nan nan nan nan nan nan nan nan 11 11 12 13 13 13 15 16 18 19 18 20 19 19 21 23 25 24 23 20 20 19 19 15 13 13 14 15 16 16 17 18 19 18 18 19 20 20 21 20 18
nan nan nan nan nan nan nan nan nan nan nan nan nan nan nan nan nan nan nan nan nan nan nan nan nan nan nan nan nan nan nan nan nan nan nan nan nan nan nan nan nan nan nan nan nan nan 13 13 13 13 14 15 16 17 17 19 21 19 19 21 22 22 20 18 18 20 20 20 17 14 14 14 16 18 19 19 20 19 18 19 20 21 21 20 19 15
nan nan nan nan nan nan nan nan nan nan nan nan nan nan nan nan nan nan nan nan nan nan nan nan nan nan nan nan nan nan nan nan nan nan nan nan nan nan nan nan nan nan nan nan nan nan nan 12 12 12 13 14 16 18 19 22 21 18 19 19 21 22 20 18 19 19 19 18 17 17 16 15 16 18 20 21 20 20 19 21 22 21 20 22 17 15
nan nan nan nan nan nan nan nan nan nan nan nan nan nan nan nan nan nan nan nan nan nan nan nan nan nan nan nan nan nan nan nan nan nan nan nan nan nan nan nan nan nan nan nan nan nan nan nan 13 13 13 14 18 21 23 21 20 20 19 19 20 19 17 17 18 18 18 17 17 18 17 17 17 18 21 21 20 19 20 22 22 22 22 19 15 13
nan nan nan nan nan nan nan nan nan nan nan nan nan nan nan nan nan nan nan nan nan nan nan nan nan nan nan nan nan nan nan nan nan nan nan nan nan nan nan nan nan nan nan nan nan nan nan nan nan 16 16 17 19 21 21 22 21 20 19 18 17 17 17 17 18 17 17 17 18 18 17 17 18 19 21 21 19 18 19 21 22 23 19 17 15 14
nan nan nan nan nan nan nan nan nan nan nan nan nan nan nan nan nan nan nan nan nan nan nan nan nan nan nan nan nan nan nan nan nan nan nan nan nan nan nan nan nan nan nan nan nan nan nan nan nan 12 14 16 17 18 20 20 20 20 19 19 17 16 16 17 15 15 16 16 17 17 18 18 18 19 20 19 17 15 18 21 22 22 18 16 16 15
nan nan nan nan nan nan nan nan nan nan nan nan nan nan nan nan nan nan nan nan nan nan nan nan nan nan nan nan nan nan nan nan nan nan nan nan nan nan nan nan nan nan nan nan nan nan nan nan nan nan 13 15 16 18 20 20 20 21 20 19 16 13 14 15 14 14 15 16 17 18 18 18 18 18 18 16 15 14 17 20 22 21 16 16 16 16
nan nan nan nan nan nan nan nan nan nan nan nan nan nan nan nan nan nan nan nan nan nan nan nan nan nan nan nan nan nan nan nan nan nan nan nan nan nan nan nan nan nan nan nan nan nan nan nan nan nan 14 15 16 18 20 21 21 20 20 19 15 13 13 14 14 15 16 17 17 18 18 18 18 17 17 15 13 14 17 21 22 20 16 15 15 18
nan nan nan nan nan nan nan nan nan nan nan nan nan nan nan nan nan nan nan nan nan nan nan nan nan nan nan nan nan nan nan nan nan nan nan nan nan nan nan nan nan nan nan nan nan nan nan nan nan 14 15 17 18 19 19 20 20 19 19 18 16 13 13 14 15 16 17 18 18 18 19 19 18 17 15 13 14 18 21 22 22 18 15 17 17 18
nan nan nan nan nan nan nan nan nan nan nan nan nan nan nan nan nan nan nan nan nan nan nan nan nan nan nan nan nan nan nan nan nan nan nan nan nan nan nan nan nan nan nan nan nan 10 11 13 nan 15 15 16 17 18 18 18 18 18 19 18 16 15 14 13 15 17 18 19 19 19 20 19 19 18 16 14 17 21 24 24 21 17 18 20 18 17
nan nan nan nan nan nan nan nan nan nan nan nan nan nan nan nan nan nan nan nan nan nan nan nan nan nan nan nan nan nan nan nan nan nan nan nan nan nan nan nan nan nan nan nan nan nan nan 11 14 15 15 16 18 19 19 18 17 18 18 17 18 18 16 16 17 18 20 21 20 20 20 19 19 19 19 17 19 22 26 26 20 19 21 20 18 19
nan nan nan nan nan nan nan nan nan nan nan nan nan nan nan nan nan nan nan nan nan nan nan nan nan nan nan nan nan nan nan nan nan nan nan nan nan nan nan nan nan nan nan nan nan nan nan nan 12 14 15 16 19 20 20 19 19 20 22 22 22 20 17 18 17 18 20 20 21 20 20 20 21 22 23 21 20 22 27 28 23 22 22 20 18 18
nan nan nan nan nan nan nan nan nan nan nan nan nan nan nan nan nan nan nan nan nan nan nan nan nan nan nan nan nan nan nan nan nan nan nan nan nan 24 nan nan nan nan nan nan nan nan nan nan nan 13 14 15 18 20 20 20 21 23 23 24 25 23 22 22 19 19 19 19 19 20 21 21 22 24 25 24 22 24 29 30 27 25 23 21 19 19
nan nan nan nan nan nan nan nan nan nan nan nan nan nan nan nan nan nan nan nan nan nan nan nan nan nan nan nan nan nan nan nan nan nan nan nan nan nan nan nan nan nan nan nan nan nan nan nan nan 18 15 16 18 20 19 19 21 24 24 26 26 26 26 23 20 20 19 17 18 21 22 23 25 26 26 27 26 25 29 33 30 26 24 22 19 20
nan nan nan nan nan nan nan nan nan nan nan nan nan nan nan nan nan nan nan nan nan nan nan nan nan nan nan nan nan nan nan nan nan nan nan nan nan nan 28 nan nan nan nan nan nan nan nan nan nan 19 17 18 20 21 19 20 23 23 24 26 25 28 28 25 23 21 19 19 21 22 23 24 26 27 27 28 30 29 30 33 32 28 26 23 21 24
nan nan nan nan nan nan nan nan nan nan nan nan nan nan nan nan nan nan nan nan nan nan nan nan nan nan nan nan nan nan nan nan nan nan nan nan nan nan nan 33 nan nan nan nan nan nan nan nan 22 21 22 23 23 24 23 24 24 23 23 25 29 31 29 28 25 24 22 22 23 24 25 26 26 27 27 29 32 33 31 31 31 30 29 28 28 25
nan nan nan nan nan nan nan nan nan nan nan nan nan nan nan nan nan nan nan nan nan nan nan nan nan nan nan nan nan nan nan nan 36 37 37 36 36 nan 32 34 38 nan nan nan nan nan nan nan 25 26 27 26 26 28 29 27 26 26 25 28 30 30 31 30 29 27 25 24 26 28 29 30 28 27 27 29 32 33 31 29 31 33 33 32 30 27
nan nan nan nan nan nan nan nan nan nan nan nan nan nan nan nan nan nan nan nan nan nan nan nan nan nan nan nan nan nan 41 38 39 41 42 40 40 40 nan nan 42 40 37 36 34 33 nan 32 30 30 28 28 31 34 34 32 31 31 28 29 30 31 31 32 30 28 27 27 29 31 32 32 31 29 28 29 31 31 30 29 31 33 34 33 32 30
nan nan nan nan nan nan nan nan nan nan nan nan nan nan nan nan nan nan nan nan 57 57 nan nan nan nan nan nan nan nan nan nan nan 43 44 46 44 44 44 44 46 47 44 39 37 34 37 40 39 36 33 33 33 35 34 33 33 32 32 33 33 34 33 33 31 29 30 29 31 32 33 32 33 31 30 29 29 29 29 30 30 32 37 35 33 33
nan nan nan nan nan nan nan nan nan nan nan nan nan nan nan nan nan nan nan nan nan 58 57 nan nan nan nan nan nan nan nan nan nan nan 45 48 46 47 47 47 47 47 47 48 47 42 37 38 42 43 38 33 31 30 31 35 36 36 37 36 37 38 36 35 32 31 30 30 29 30 32 32 33 32 31 30 28 27 27 28 29 31 36 35 34 33
nan nan nan nan nan nan nan nan nan nan nan nan nan nan nan nan nan nan nan nan 59 60 61 57 nan nan nan nan nan nan nan nan nan nan 43 47 47 49 50 50 49 48 49 51 50 47 42 40 41 44 44 39 32 28 31 35 38 40 39 40 41 41 40 38 35 34 31 27 25 26 28 31 32 32 31 29 27 27 27 27 28 31 35 35 34 33
nan nan nan nan nan nan nan nan nan nan nan nan nan nan nan nan nan nan nan nan nan 63 61 59 52 49 nan nan nan nan nan nan nan 39 43 47 46 48 51 52 53 54 53 52 51 49 43 41 44 45 43 38 33 37 37 36 37 39 39 41 43 42 40 39 38 37 33 28 27 28 29 30 30 30 31 29 28 28 28 28 29 31 34 35 36 36
nan 78 70 64 nan nan nan nan nan nan nan nan nan nan nan nan 54 nan nan nan 58 61 59 58 53 47 46 46 42 45 40 39 40 42 44 46 48 51 53 51 50 50 53 54 55 54 51 51 47 44 42 39 41 44 45 45 41 39 39 43 46 42 41 42 41 40 36 33 33 34 33 31 30 29 29 29 29 29 31 32 31 31 33 35 39 40
83 90 84 75 nan nan nan nan nan nan nan nan nan nan nan nan nan nan 52 52 55 58 58 58 59 54 53 53 50 48 44 44 45 44 47 49 50 49 51 51 51 54 54 54 56 58 56 55 56 56 54 52 48 46 49 48 45 42 44 47 44 41 42 43 43 41 39 38 37 36 35 34 31 29 29 31 34 34 33 34 34 33 33 36 40 43
nan nan nan nan 70 nan nan nan nan nan nan nan nan nan 72 65 56 51 51 54 58 58 57 59 61 58 57 58 54 52 50 47 46 47 51 51 51 52 51 52 52 51 51 54 54 55 56 54 56 56 54 51 51 52 51 51 49 47 49 47 42 44 47 48 46 43 42 43 43 41 40 40 39 36 34 34 35 36 36 39 39 37 36 38 41 46
nan nan nan 82 72 nan nan nan nan nan nan nan 70 65 64 61 56 53 52 54 58 60 57 57 61 61 60 60 55 54 51 49 47 47 49 50 49 49 50 51 51 49 49 49 47 48 49 49 48 48 48 48 48 48 49 51 50 49 51 46 49 52 51 50 49 48 48 47 44 43 43 45 46 46 42 38 40 40 41 42 41 42 41 41 44 49
nan 54 70 nan 76 nan nan nan nan nan nan nan 66 63 59 57 61 62 62 60 59 59 59 59 61 62 63 63 61 56 55 53 49 47 50 49 48 50 52 53 51 50 49 47 48 46 45 45 42 42 42 43 44 45 46 46 48 50 47 47 52 52 53 51 51 51 52 52 52 52 52 53 53 54 52 48 46 44 44 42 43 44 46 48 50 52
67 58 58 73 76 72 63 53 nan 52 67 70 68 66 64 63 66 68 70 68 67 63 63 64 65 66 66 63 64 60 55 51 53 50 49 49 49 49 49 51 52 50 49 48 48 47 45 43 42 42 42 42 45 46 47 46 46 45 44 49 50 52 54 55 55 55 54 56 57 57 58 57 57 59 60 59 52 46 44 42 42 45 50 53 55 56
nan 63 55 60 70 71 62 55 45 46 nan 74 71 71 71 67 65 70 72 72 71 72 71 69 69 72 73 72 70 64 60 56 57 54 51 50 52 52 52 53 52 52 52 51 49 46 46 46 45 45 44 43 45 47 48 48 46 45 46 45 47 49 54 56 58 57 57 58 59 60 59 58 59 61 62 63 60 55 52 50 48 50 51 53 56 57
nan 63 63 59 62 nan nan 61 nan 47 nan 70 72 74 74 70 66 68 71 75 74 73 72 71 70 75 74 77 72 69 67 63 63 61 58 56 55 54 54 54 53 53 51 50 49 48 48 48 49 50 49 48 45 46 47 48 48 47 46 46 47 46 47 51 54 55 55 58 60 61 61 59 59 61 61 62 65 67 67 62 56 52 49 48 52 57
nan 56 nan 59 59 66 72 65 nan 51 54 nan nan 72 73 73 62 nan 63 68 70 66 60 59 nan nan 78 78 75 72 73 70 67 64 64 61 60 59 58 56 54 54 53 52 50 51 52 51 53 52 53 52 49 48 48 48 49 49 50 48 48 49 48 47 49 49 51 54 58 60 63 65 65 62 61 65 67 68 65 60 55 52 48 45 49 54
nan nan 49 50 55 59 nan nan nan 50 52 nan nan 64 69 78 74 nan 59 60 60 58 nan nan nan nan 75 78 78 76 74 70 68 65 66 64 62 61 59 59 58 59 58 55 53 54 53 54 54 56 55 53 53 53 52 52 52 52 52 53 52 52 50 49 49 50 52 55 59 66 71 74 76 76 73 70 69 67 64 65 63 57 54 54 61 66
nan nan 44 47 nan nan 67 nan nan 53 nan nan nan nan nan nan nan 75 nan 59 47 43 nan nan nan nan nan 73 75 76 74 71 67 65 66 64 62 60 59 59 61 61 62 60 60 60 59 58 59 60 59 57 57 57 57 57 55 55 55 55 54 53 52 53 52 51 53 59 61 65 70 73 75 73 72 71 70 67 68 68 64 65 67 59 61 72
Wind_Direction
nan nan nan nan nan nan nan nan nan nan nan nan nan nan nan nan nan nan nan nan nan nan nan nan nan nan 351 1 357 349 346 348 343 347 345 333 333 344 355 6 10 17 29 16 3 352 354 357 341 294 221 204 216 181 156 138 91 73 64 55 50 52 42 49 52 60 61 67 88 102 90 89 95 88 80 85 103 105 104 103 95 92 84 65 41 25
nan nan nan nan nan nan nan nan nan nan nan nan nan nan nan nan nan nan nan nan nan nan nan nan nan nan 341 347 341 329 336 352 347 348 350 338 334 343 355 5 8 23 33 5 6 5 354 3 3 349 324 309 348 46 41 62 57 66 55 48 45 53 53 55 56 61 65 71 72 79 92 101 106 95 63 84 113 120 127 112 97 87 75 50 33 18
nan nan nan nan nan nan nan nan nan nan nan nan nan nan nan nan nan nan nan nan nan nan nan nan nan nan nan 322 316 324 342 349 344 347 353 341 333 336 349 1 8 3 3 6 18 15 13 15 15 11 7 18 22 13 26 38 57 70 61 53 29 30 28 42 49 62 66 77 84 79 105 86 119 130 99 108 131 161 135 114 97 73 45 29 24 7
nan nan nan nan nan nan nan nan nan nan nan nan nan nan nan nan nan nan nan nan nan nan nan nan nan nan nan 244 296 328 333 335 339 348 353 347 337 337 346 354 1 4 354 359 11 17 23 19 18 26 23 19 6 7 17 8 36 58 58 36 13 10 9 12 26 44 61 63 78 98 123 128 127 146 157 158 165 166 161 115 97 69 24 14 5 350
nan nan nan nan nan nan nan nan nan nan nan nan nan nan nan nan nan nan nan nan nan nan nan nan nan nan nan nan 230 254 324 305 320 336 358 17 358 346 344 348 355 360 355 354 358 8 11 10 13 18 25 2 358 11 8 9 18 32 20 11 359 356 1 2 10 17 17 33 68 107 161 169 163 173 192 186 149 149 115 75 59 36 4 360 350 339
nan nan nan nan nan nan nan nan nan nan nan nan nan nan nan nan nan nan nan nan nan nan nan nan nan nan nan nan nan 302 288 334 323 341 15 23 12 355 351 348 351 6 360 348 350 358 360 3 3 5 7 7 19 14 10 4 4 355 347 342 346 347 346 360 4 0 352 6 3 346 5 45 83 94 179 39 30 1 16 28 348 352 349 345 338 331
nan nan nan nan nan nan nan nan nan nan nan nan nan nan nan nan nan nan nan nan nan nan nan nan nan nan nan nan nan nan nan 13 326 2 35 35 27 21 14 353 343 354 5 359 349 353 353 357 353 359 359 5 10 18 0 350 351 348 333 336 344 346 345 346 349 356 359 9 11 9 15 17 14 28 69 234 292 353 347 313 336 338 326 329 331 327
nan nan nan nan nan nan nan nan nan nan nan nan nan nan nan nan nan nan nan nan nan nan nan nan nan nan nan nan nan nan nan nan 23 56 59 55 39 31 26 9 350 346 353 350 350 352 2 357 353 358 4 358 5 5 345 344 339 341 336 329 338 340 347 344 342 355 6 14 17 17 19 12 6 7 6 324 330 309 296 311 317 309 315 317 321 322
nan nan nan nan nan nan nan nan nan nan nan nan nan nan nan nan nan nan nan nan nan nan nan nan nan nan nan nan nan nan nan nan nan nan 69 54 39 38 34 24 10 354 345 344 348 352 357 0 3 2 360 2 2 354 349 346 338 337 336 335 339 345 346 347 349 356 8 13 14 16 13 13 6 349 330 291 282 294 293 303 293 300 303 311 317 321
nan nan nan nan nan nan nan nan nan nan nan nan nan nan nan nan nan nan nan nan nan nan nan nan nan nan nan nan nan nan nan nan nan nan nan 45 34 38 41 35 23 5 343 337 349 353 353 356 357 354 358 357 359 1 359 351 337 335 331 338 340 347 339 341 353 359 6 11 5 4 8 12 360 319 295 278 293 293 280 297 296 293 297 305 311 320
nan nan nan nan nan nan nan nan nan nan nan nan nan nan nan nan nan nan nan nan nan nan nan nan nan nan nan nan nan nan nan nan nan nan nan nan nan nan 48 34 20 7 350 332 333 341 347 347 347 344 351 359 359 354 349 348 344 332 332 337 339 344 335 338 349 355 6 7 4 3 4 5 355 329 303 288 288 278 266 284 290 291 299 300 311 313
nan nan nan nan nan nan nan nan nan nan nan nan nan nan nan nan nan nan nan nan nan nan nan nan nan nan nan nan nan nan nan nan nan nan nan nan nan nan nan nan 21 6 354 335 320 323 325 313 321 329 359 353 346 338 335 331 325 318 319 322 335 337 337 334 339 348 2 3 4 360 358 359 351 330 312 317 319 306 297 294 291 287 290 299 305 309
nan nan nan nan nan nan nan nan nan nan nan nan nan nan nan nan nan nan nan nan nan nan nan nan nan nan nan nan nan nan nan nan nan nan nan nan nan nan nan nan nan 1 349 329 320 311 305 312 324 331 347 332 325 332 330 321 314 309 310 320 331 337 328 324 327 338 352 358 358 351 346 344 332 326 321 317 318 302 295 290 288 288 299 300 305 310
nan nan nan nan nan nan nan nan nan nan nan nan nan nan nan nan nan nan nan nan nan nan nan nan nan nan nan nan nan nan nan nan nan nan nan nan nan nan nan nan nan nan 337 335 321 305 303 313 321 328 327 324 325 331 325 319 313 308 311 321 328 331 319 314 320 330 337 349 353 342 329 320 309 308 307 307 308 300 293 291 294 298 303 306 314 309
nan nan nan nan nan nan nan nan nan nan nan nan nan nan nan nan nan nan nan nan nan nan nan nan nan nan nan nan nan nan nan nan nan nan nan nan nan nan nan nan nan nan 328 324 315 303 302 309 318 317 314 315 322 327 324 318 320 316 320 323 327 323 322 321 323 321 333 332 335 326 317 307 298 296 291 292 292 294 294 290 294 297 296 302 304 305
nan nan nan nan nan nan nan nan nan nan nan nan nan nan nan nan nan nan nan nan nan nan nan nan nan nan nan nan nan nan nan nan nan nan nan nan nan nan nan nan nan nan nan 314 319 311 302 301 305 306 304 310 318 324 321 324 323 324 324 321 324 326 325 328 330 331 333 328 314 316 313 310 302 288 284 281 282 283 285 288 293 295 295 299 299 296
nan nan nan nan nan nan nan nan nan nan nan nan nan nan nan nan nan nan nan nan nan nan nan nan nan nan nan nan nan nan nan nan nan nan nan nan nan nan nan nan nan nan nan nan 331 323 312 287 288 299 305 307 314 316 321 326 327 328 319 313 317 319 319 329 335 337 333 329 318 316 311 302 296 295 295 291 289 286 280 283 285 286 290 292 290 290
nan nan nan nan nan nan nan nan nan nan nan nan nan nan nan nan nan nan nan nan nan nan nan nan nan nan nan nan nan nan nan nan nan nan nan nan nan nan nan nan nan nan nan nan 340 326 308 289 288 294 296 307 316 321 323 328 321 315 310 311 314 316 326 331 334 338 337 337 332 316 308 303 298 290 286 279 279 276 275 276 276 276 279 284 284 285
nan nan nan nan nan nan nan nan nan nan nan nan nan nan nan nan nan nan nan nan nan nan nan nan nan nan nan nan nan nan nan nan nan nan nan nan nan nan nan nan nan nan nan nan nan 311 295 277 276 287 300 309 314 315 320 318 309 301 301 306 312 322 329 332 333 339 339 340 329 313 308 303 293 284 278 274 272 271 274 277 275 276 278 276 276 279
nan nan nan nan nan nan nan nan nan nan nan nan nan nan nan nan nan nan nan nan nan nan nan nan nan nan nan nan nan nan nan nan nan nan nan nan nan nan nan nan nan nan nan nan nan nan 315 297 291 296 300 304 306 306 308 301 291 301 307 308 310 315 316 321 335 339 341 342 335 322 306 299 294 289 283 279 275 274 275 271 270 270 270 275 273 272
nan nan nan nan nan nan nan nan nan nan nan nan nan nan nan nan nan nan nan nan nan nan nan nan nan nan nan nan nan nan nan nan nan nan nan nan nan nan nan nan nan nan nan nan nan nan nan 320 306 304 300 297 297 295 289 283 293 305 303 309 314 316 321 330 341 339 339 334 338 331 324 313 299 292 282 279 276 274 270 265 266 265 266 265 268 260
nan nan nan nan nan nan nan nan nan nan nan nan nan nan nan nan nan nan nan nan nan nan nan nan nan nan nan nan nan nan nan nan nan nan nan nan nan nan nan nan nan nan nan nan nan nan nan nan 335 323 308 288 279 277 280 288 295 297 306 317 317 315 320 335 338 337 335 333 333 336 328 318 303 292 282 279 273 271 268 264 262 260 260 268 263 249
nan nan nan nan nan nan nan nan nan nan nan nan nan nan nan nan nan nan nan nan nan nan nan nan nan nan nan nan nan nan nan nan nan nan nan nan nan nan nan nan nan nan nan nan nan nan nan nan nan 330 317 301 293 293 295 291 293 302 312 312 307 315 328 334 338 331 325 331 333 334 324 314 306 296 290 285 273 270 265 261 257 256 263 263 249 236
nan nan nan nan nan nan nan nan nan nan nan nan nan nan nan nan nan nan nan nan nan nan nan nan nan nan nan nan nan nan nan nan nan nan nan nan nan nan nan nan nan nan nan nan nan nan nan nan nan 313 301 298 293 286 289 295 302 304 305 306 303 322 332 327 322 319 324 330 331 326 323 321 308 303 298 291 277 268 260 256 253 254 259 253 239 236
nan nan nan nan nan nan nan nan nan nan nan nan nan nan nan nan nan nan nan nan nan nan nan nan nan nan nan nan nan nan nan nan nan nan nan nan nan nan nan nan nan nan nan nan nan nan nan nan nan nan 303 303 303 301 300 301 302 306 311 308 311 321 321 315 311 316 322 325 327 327 329 325 314 315 314 301 273 260 254 254 253 253 256 243 234 236
nan nan nan nan nan nan nan nan nan nan nan nan nan nan nan nan nan nan nan nan nan nan nan nan nan nan nan nan nan nan nan nan nan nan nan nan nan nan nan nan nan nan nan nan nan nan nan nan nan nan 294 290 293 298 299 299 301 306 310 317 320 316 306 310 307 317 318 320 327 332 335 327 323 329 328 308 271 252 249 250 253 255 245 236 235 238
nan nan nan nan nan nan nan nan nan nan nan nan nan nan nan nan nan nan nan nan nan nan nan nan nan nan nan nan nan nan nan nan nan nan nan nan nan nan nan nan nan nan nan nan nan nan nan nan nan 303 302 297 295 295 296 298 299 302 307 315 317 313 310 309 309 314 317 322 329 333 338 333 329 326 325 307 267 247 245 249 254 253 240 233 237 239
nan nan nan nan nan nan nan nan nan nan nan nan nan nan nan nan nan nan nan nan nan nan nan nan nan nan nan nan nan nan nan nan nan nan nan nan nan nan nan nan nan nan nan nan nan 242 257 280 nan 305 310 304 294 292 294 293 292 295 302 310 310 306 305 301 310 315 320 321 330 339 342 334 322 316 317 298 266 252 251 253 252 241 231 234 238 239
nan nan nan nan nan nan nan nan nan nan nan nan nan nan nan nan nan nan nan nan nan nan nan nan nan nan nan nan nan nan nan nan nan nan nan nan nan nan nan nan nan nan nan nan nan nan nan 263 282 300 308 309 300 295 295 289 285 281 282 290 297 303 316 314 312 317 318 320 332 340 335 324 314 308 304 295 276 263 261 262 253 235 232 236 236 237
nan nan nan nan nan nan nan nan nan nan nan nan nan nan nan nan nan nan nan nan nan nan nan nan nan nan nan nan nan nan nan nan nan nan nan nan nan nan nan nan nan nan nan nan nan nan nan nan 272 294 304 302 300 298 291 285 286 288 291 294 297 304 307 298 309 316 318 326 336 331 320 313 310 309 303 297 289 273 266 263 251 235 234 238 241 245
nan nan nan nan nan nan nan nan nan nan nan nan nan nan nan nan nan nan nan nan nan nan nan nan nan nan nan nan nan nan nan nan nan nan nan nan nan 230 nan nan nan nan nan nan nan nan nan nan nan 273 281 291 299 301 294 288 288 289 292 290 292 300 301 301 308 313 320 334 331 314 308 307 308 306 307 304 292 275 268 266 253 238 236 241 246 250
nan nan nan nan nan nan nan nan nan nan nan nan nan nan nan nan nan nan nan nan nan nan nan nan nan nan nan nan nan nan nan nan nan nan nan nan nan nan nan nan nan nan nan nan nan nan nan nan nan 269 282 291 297 298 290 283 280 281 286 287 291 297 296 297 302 312 322 328 311 303 306 305 302 303 305 302 299 285 272 265 257 245 244 248 250 247
nan nan nan nan nan nan nan nan nan nan nan nan nan nan nan nan nan nan nan nan nan nan nan nan nan nan nan nan nan nan nan nan nan nan nan nan nan nan 230 nan nan nan nan nan nan nan nan nan nan 287 290 283 285 292 294 287 283 286 289 290 294 288 291 296 301 306 310 307 302 305 304 299 297 300 300 301 298 287 273 268 264 257 255 259 254 247
nan nan nan nan nan nan nan nan nan nan nan nan nan nan nan nan nan nan nan nan nan nan nan nan nan nan nan nan nan nan nan nan nan nan nan nan nan nan nan 225 nan nan nan nan nan nan nan nan 269 278 286 283 286 294 292 286 292 294 289 287 281 283 287 292 296 300 304 301 303 307 304 299 297 298 299 294 292 290 283 274 271 265 259 256 255 254
nan nan nan nan nan nan nan nan nan nan nan nan nan nan nan nan nan nan nan nan nan nan nan nan nan nan nan nan nan nan nan nan 239 237 229 225 226 nan 230 231 227 nan nan nan nan nan nan nan 266 269 271 271 274 273 275 281 283 278 274 272 276 280 286 293 298 300 303 302 301 300 303 304 303 300 295 292 292 294 292 283 272 267 260 260 266 265
nan nan nan nan nan nan nan nan nan nan nan nan nan nan nan nan nan nan nan nan nan nan nan nan nan nan nan nan nan nan 247 243 240 237 234 228 225 223 nan nan 223 228 232 236 238 237 nan 247 262 268 269 272 272 271 278 287 287 280 278 276 280 282 285 290 292 294 293 297 298 300 301 302 302 298 294 294 295 298 298 287 276 271 264 261 263 262
nan nan nan nan nan nan nan nan nan nan nan nan nan nan nan nan nan nan nan nan 230 232 nan nan nan nan nan nan nan nan nan nan nan 229 233 231 222 222 224 223 225 224 223 227 238 243 244 244 241 241 247 259 266 271 277 280 278 275 273 273 274 275 278 282 284 287 291 297 299 297 295 296 297 296 295 296 299 302 300 293 281 269 261 262 265 266
nan nan nan nan nan nan nan nan nan nan nan nan nan nan nan nan nan nan nan nan nan 229 233 nan nan nan nan nan nan nan nan nan nan nan 228 227 226 222 222 225 225 227 226 227 228 233 241 247 248 251 251 247 256 270 274 272 270 269 270 274 274 275 278 282 286 286 290 296 296 293 290 290 292 294 293 292 298 301 299 295 281 269 262 264 267 269
nan nan nan nan nan nan nan nan nan nan nan nan nan nan nan nan nan nan nan nan 222 226 229 236 nan nan nan nan nan nan nan nan nan nan 224 224 224 227 224 224 226 227 229 230 229 227 229 236 247 251 253 256 253 252 260 265 267 269 274 275 275 275 282 290 292 286 289 296 296 291 287 284 285 290 293 293 292 292 298 298 289 273 262 260 263 266
nan nan nan nan nan nan nan nan nan nan nan nan nan nan nan nan nan nan nan nan nan 222 225 233 237 239 nan nan nan nan nan nan nan 228 224 223 226 229 228 224 222 223 226 228 231 230 231 236 244 249 256 260 261 254 245 248 260 268 272 272 271 272 279 290 292 288 288 291 288 284 285 286 289 291 292 293 288 287 293 291 285 278 268 261 259 259
nan 218 223 221 nan nan nan nan nan nan nan nan nan nan nan nan 218 nan nan nan 220 222 223 230 234 235 240 244 238 237 225 228 229 227 224 224 226 225 227 228 227 229 228 229 233 232 231 234 242 246 246 250 254 255 257 256 254 255 261 267 269 275 283 287 286 284 286 287 284 284 288 289 292 294 291 287 284 283 282 281 286 285 277 267 259 259
224 221 220 222 nan nan nan nan nan nan nan nan nan nan nan nan nan nan 216 210 217 222 223 226 234 235 240 241 242 238 235 230 229 228 228 228 231 231 229 225 224 224 227 232 234 237 237 235 239 242 242 241 243 252 261 262 263 263 262 265 271 279 285 284 283 281 279 279 281 284 285 286 285 286 279 274 271 271 275 277 279 280 280 271 263 262
nan nan nan nan 218 nan nan nan nan nan nan nan nan nan 223 225 218 210 206 211 214 220 223 222 227 231 237 241 238 240 237 232 229 227 227 226 227 229 228 228 229 229 229 228 228 232 237 238 239 243 244 245 247 251 257 261 266 265 264 268 274 273 271 270 271 270 267 267 272 276 281 282 283 280 271 266 267 268 268 268 270 268 268 269 266 263
nan nan nan 222 219 nan nan nan nan nan nan nan 210 216 218 219 213 208 210 212 215 219 220 223 222 226 232 241 241 236 234 233 228 224 225 225 227 229 229 230 231 231 231 233 235 236 238 241 242 243 244 247 247 247 254 266 264 265 269 273 271 269 270 271 271 270 267 266 267 269 272 277 281 282 278 272 265 263 263 264 267 268 266 267 268 267
nan 221 225 nan 217 nan nan nan nan nan nan nan 208 210 210 213 216 215 216 217 217 219 222 225 226 224 227 235 235 235 233 230 230 224 224 222 224 226 227 228 232 233 232 234 234 235 240 240 241 245 246 249 248 250 248 254 266 270 271 270 267 269 271 272 270 270 271 271 271 270 269 269 270 273 272 266 259 257 258 259 262 266 266 264 264 265
213 216 223 221 216 212 205 201 nan 201 204 206 206 206 207 210 217 220 220 219 217 216 219 225 224 221 221 224 234 229 230 231 232 227 224 223 225 226 228 229 231 233 234 237 237 238 239 240 241 242 245 249 251 251 252 252 252 260 266 269 272 271 273 274 274 275 276 276 276 276 275 274 274 274 275 273 266 263 261 260 257 260 261 264 265 264
nan 218 220 222 213 212 204 201 196 200 nan 205 205 204 209 211 212 217 217 218 215 212 212 217 224 223 220 220 225 229 228 227 231 230 229 228 228 228 230 230 230 231 233 235 238 240 243 244 246 247 245 244 246 246 248 248 251 253 252 254 259 268 274 275 279 280 278 278 278 277 276 278 276 276 278 279 277 274 270 264 259 257 258 263 267 269
nan 217 220 225 219 nan nan 203 nan 200 nan 200 205 205 207 207 205 209 212 213 212 210 208 208 215 220 219 220 219 225 226 224 227 228 229 230 231 233 235 235 233 233 235 239 240 242 245 246 248 250 251 251 246 244 244 245 246 246 249 254 255 253 261 274 279 281 282 283 281 279 280 279 284 283 279 282 282 279 273 267 263 260 260 263 266 269
nan 209 nan 229 222 213 209 203 nan 199 198 nan nan 204 205 210 210 nan 210 211 209 204 198 198 nan nan 218 219 218 222 225 224 225 227 230 231 233 235 237 239 239 238 238 239 241 243 245 245 247 250 253 252 255 253 248 247 248 249 250 253 254 257 257 258 264 269 274 277 278 278 276 271 266 267 273 279 281 279 275 273 269 265 260 261 262 264
nan nan 213 228 224 216 nan nan nan 197 189 nan nan 197 201 207 213 nan 214 213 212 205 nan nan nan nan 217 219 220 222 226 226 226 228 231 233 234 235 236 238 238 238 239 240 244 246 247 248 250 252 253 255 256 256 256 257 256 256 258 257 257 257 256 257 260 262 265 266 267 266 267 269 272 272 268 269 275 273 259 250 255 256 261 262 262 264
nan nan 208 215 nan nan 211 nan nan 197 nan nan nan nan nan nan nan 218 nan 221 217 207 nan nan nan nan nan 221 222 226 227 229 229 231 234 235 237 238 239 239 239 239 239 240 242 244 246 249 251 252 253 254 253 254 255 256 258 259 260 261 262 260 258 257 258 259 259 262 263 269 271 272 272 272 272 273 276 271 265 262 258 251 247 248 270 276